This demonstration page uses our WeatherBlox Daily Observations layout. Learn more.

Left ArrowRight Arrow

Hourly Observations for July 7, 2015

Temp ( °F °C ) Dew Point ( °F °C ) Humidity (%) Winds ( mph kmh ) Pressure ( in mb ) Visibility ( mi km ) Precip ( " mm )
12:03 am 00:03 Cloudy with Thunderstorms 79 26 64 18 61 61 N 15 24 29.77 1008 10 16 0.00 0.00
12:53 am 00:53 Mostly Cloudy with Nearby Thunderstorms 75 23.9 67 19.4 76 76 NE 15 24 29.79 1009 10 16 0.00 0.00
1:14 am 01:14 Mostly Cloudy 73 23 68 20 83 83 ENE 12 19 29.83 1010 10 16 0.00 0.00
1:53 am 01:53 Mostly Cloudy 74 23.3 67 19.4 79 79 ENE 7 11 29.79 1009 10 16 0.00 0.00
2:53 am 02:53 Partly Cloudy 74 23.3 68 20 82 82 NNE 12 19 29.79 1009 10 16 0.00 0.00
3:53 am 03:53 Clear 73 22.8 68 20 84 84 N 6 9 29.81 1010 10 16 0.00 0.00
4:53 am 04:53 Cloudy 73 22.8 68 20 84 84 NNW 8 13 29.83 1010 10 16 0.00 0.00
5:53 am 05:53 Partly Cloudy 73 22.8 69 20.6 87 87 N 8 13 29.83 1010 10 16 0.00 0.00
6:53 am 06:53 Clear 73 22.8 69 20.6 87 87 NNW 8 13 29.84 1011 10 16 0.00 0.00
7:53 am 07:53 Sunny 75 23.9 69 20.6 82 82 NW 10 17 29.86 1011 10 16 0.00 0.00
8:33 am 08:33 Mostly Cloudy 76 24.4 69 20.6 79 79 NNW 10 17 29.85 1011 10 16 0.00 0.00
8:53 am 08:53 Cloudy 77 25 69 20.6 77 77 N 15 24 29.87 1012 10 16 0.00 0.00
9:30 am 09:30 Mostly Sunny 79 26 68 20 70 70 N 15 24 29.85 1011 10 16 0.00 0.00
9:53 am 09:53 Mostly Sunny 80 26.7 69 20.6 69 69 N 13 20 29.88 1012 10 16 0.00 0.00
10:19 am 10:19 Mostly Cloudy 81 27.2 68 20 65 65 N 12 19 29.85 1011 10 16 0.00 0.00
10:53 am 10:53 Cloudy 82 27.8 67 19.4 60 60 N 15 24 29.88 1012 10 16 0.00 0.00
11:17 am 11:17 Cloudy 81 27.2 66 18.9 61 61 N 12 19 29.85 1011 10 16 0.00 0.00
11:53 am 11:53 Cloudy 83 28.3 67 19.4 59 59 NNW 18 30 29.89 1012 10 16 0.00 0.00
12:53 pm 12:53 Cloudy 85 29.4 66 18.9 53 53 N 13 20 29.89 1012 10 16 0.00 0.00
1:53 pm 13:53 Mostly Cloudy 86 30 66 18.9 51 51 N 15 24 29.88 1012 10 16 0.00 0.00
2:53 pm 14:53 Partly Cloudy 90 32.2 65 18.3 44 44 N 13 20 29.87 1011 10 16 0.00 0.00
3:53 pm 15:53 Mostly Sunny 90 32.2 63 17.2 41 41 NNE 15 24 29.84 1011 10 16 0.00 0.00
4:53 pm 16:53 Mostly Cloudy 88 31.1 63 17.2 43 43 NNE 16 26 29.82 1010 10 16 0.00 0.00
5:53 pm 17:53 Partly Cloudy 87 30.6 64 17.8 46 46 NE 15 24 29.82 1010 10 16 0.00 0.00
6:53 pm 18:53 Partly Cloudy 86 30 63 17.2 46 46 NE 15 24 29.80 1009 10 16 0.00 0.00
7:53 pm 19:53 Partly Cloudy 83 28.3 63 17.2 51 51 ENE 18 30 29.82 1010 10 16 0.00 0.00
8:53 pm 20:53 Mostly Sunny 80 26.7 64 17.8 58 58 ENE 14 22 29.87 1012 10 16 0.00 0.00
9:53 pm 21:53 Cloudy 79 26.1 64 17.8 60 60 NE 10 17 29.89 1012 10 16 0.00 0.00
10:53 pm 22:53 Cloudy 76 24.4 64 17.8 67 67 NE 14 22 29.92 1013 10 16 0.00 0.00
11:53 pm 23:53 Mostly Cloudy 75 23.9 64 17.8 69 69 NE 12 19 29.92 1013 10 16 0.00 0.00

Powered by AerisWeather